TimeCDT,TemperatureF,Dew PointF,Humidity,Sea Level PressureIn,VisibilityMPH,Wind Direction,Wind SpeedMPH,Gust SpeedMPH,PrecipitationIn,Events,Conditions,WindDirDegrees,DateUTC
12:56 AM,70.9,70.9,100,29.82,7.0,SSE,5.8,-,0.05,Rain,Light Rain,150,2013-09-21 05:56:00
1:56 AM,70.9,70.9,100,29.78,4.0,South,6.9,-,0.03,Rain,Light Rain,170,2013-09-21 06:56:00
2:09 AM,71.6,71.6,100,29.77,5.0,South,9.2,-,0.00,Rain,Light Rain,180,2013-09-21 07:09:00
2:56 AM,72.0,70.9,96,29.76,7.0,SSW,6.9,-,0.01,Rain,Light Rain,200,2013-09-21 07:56:00
3:14 AM,69.8,66.2,88,29.77,1.8,NNW,18.4,26.5,0.07,Rain,Light Rain,340,2013-09-21 08:14:00
3:19 AM,68.0,66.2,94,29.77,2.0,North,18.4,25.3,0.07,Rain,Rain,350,2013-09-21 08:19:00
3:23 AM,66.2,66.2,100,29.78,4.0,North,15.0,25.3,0.07,Rain,Light Rain,350,2013-09-21 08:23:00
3:31 AM,66.2,66.2,100,29.78,6.0,North,12.7,-,0.07,Rain,Rain,360,2013-09-21 08:31:00
3:56 AM,66.9,65.8,96,29.80,6.0,North,11.5,-,0.08,Rain,Rain,360,2013-09-21 08:56:00
4:05 AM,66.2,66.2,100,29.78,4.0,North,10.4,-,0.00,Rain,Rain,360,2013-09-21 09:05:00
4:13 AM,66.2,66.2,100,29.78,4.0,North,12.7,-,0.01,Rain,Rain,360,2013-09-21 09:13:00
4:22 AM,66.2,66.2,100,29.78,6.0,North,11.5,-,0.02,Rain,Rain,360,2013-09-21 09:22:00
4:56 AM,65.8,65.8,100,29.82,2.5,NNW,8.1,-,0.06,Rain,Heavy Rain,340,2013-09-21 09:56:00
5:17 AM,66.2,66.2,100,29.81,3.0,NNW,6.9,-,0.06,Rain,Heavy Rain,340,2013-09-21 10:17:00
5:49 AM,66.2,66.2,100,29.81,5.0,NNW,5.8,-,0.09,Rain,Rain,330,2013-09-21 10:49:00
5:56 AM,65.8,65.8,100,29.82,5.0,NNW,4.6,-,0.10,Rain,Rain,330,2013-09-21 10:56:00
6:34 AM,66.2,66.2,100,29.81,5.0,NNW,3.5,-,0.04,Rain,Rain,330,2013-09-21 11:34:00
6:56 AM,65.8,65.8,100,29.84,7.0,Calm,Calm,-,0.05,Rain,Light Rain,0,2013-09-21 11:56:00
7:07 AM,66.2,66.2,100,29.82,10.0,Calm,Calm,-,0.01,Rain,Light Rain,0,2013-09-21 12:07:00
7:56 AM,66.9,66.9,100,29.86,4.0,NW,5.8,-,0.02,Rain,Rain,310,2013-09-21 12:56:00
8:20 AM,66.2,66.2,100,29.84,1.8,WNW,3.5,-,0.02,Rain,Rain,300,2013-09-21 13:20:00
8:36 AM,66.2,66.2,100,29.85,3.0,NNW,4.6,-,0.02,Rain,Light Rain,330,2013-09-21 13:36:00
8:56 AM,65.8,64.9,97,29.88,10.0,NNW,12.7,-,0.02,,Mostly Cloudy,330,2013-09-21 13:56:00
9:49 AM,62.6,62.6,100,29.87,2.0,NNW,12.7,-,0.00,Rain,Light Rain,330,2013-09-21 14:49:00
9:56 AM,63.0,61.0,93,29.89,3.0,NNW,11.5,-,0.00,Rain,Light Rain,330,2013-09-21 14:56:00
10:28 AM,64.4,62.6,94,29.87,10.0,North,11.5,-,0.00,,Overcast,350,2013-09-21 15:28:00
10:56 AM,63.9,61.0,90,29.89,10.0,North,8.1,-,0.00,,Overcast,350,2013-09-21 15:56:00
11:56 AM,66.9,59.0,76,29.89,10.0,North,12.7,-,0.02,,Scattered Clouds,350,2013-09-21 16:56:00
12:56 PM,70.0,57.9,65,29.88,10.0,North,10.4,-,N/A,,Clear,360,2013-09-21 17:56:00
1:56 PM,72.9,57.9,59,29.87,10.0,NNW,10.4,-,N/A,,Partly Cloudy,330,2013-09-21 18:56:00
2:56 PM,73.9,56.8,55,29.86,10.0,NNW,10.4,-,N/A,,Clear,340,2013-09-21 19:56:00
3:56 PM,74.8,54.9,50,29.85,10.0,NNW,12.7,-,N/A,,Scattered Clouds,340,2013-09-21 20:56:00
4:56 PM,73.9,54.0,50,29.85,10.0,North,8.1,-,N/A,,Clear,360,2013-09-21 21:56:00
5:56 PM,70.9,54.0,55,29.87,10.0,North,9.2,-,N/A,,Mostly Cloudy,350,2013-09-21 22:56:00
6:56 PM,65.8,54.0,65,29.88,10.0,North,6.9,-,N/A,,Partly Cloudy,350,2013-09-21 23:56:00
7:56 PM,61.9,54.9,78,29.89,10.0,North,4.6,-,N/A,,Partly Cloudy,360,2013-09-22 00:56:00
8:56 PM,61.9,54.9,78,29.91,10.0,North,5.8,-,N/A,,Clear,350,2013-09-22 01:56:00
9:56 PM,59.9,54.0,81,29.91,10.0,North,4.6,-,N/A,,Clear,360,2013-09-22 02:56:00
10:56 PM,57.9,54.0,87,29.91,10.0,Calm,Calm,-,N/A,,Clear,0,2013-09-22 03:56:00
11:56 PM,59.0,54.0,83,29.91,10.0,North,4.6,-,N/A,,Clear,10,2013-09-22 04:56:00